sat.trackr.live / text

‹ back to catalog

STARLINK-32880

NORAD 62955 · 2025-029H

PAYLOAD ACTIVE UNKNOWN

§ Identity

Operator
Country
US
Launch date
2025-02-11
Launch site
AFWTR
Launch vehicle
Mass (kg)
RCS (m²)

Purposes: comms

External: N2YO · Heavens-Above · Gunter

§ Orbital elements

Epoch: 2026-05-24T23:33:48.593088Z

Period
94.01 min
Inclination
53.1575°
Eccentricity
0.0001596
Mean motion
15.31718774 rev/d
Perigee alt
469.6 km
Apogee alt
471.8 km
Semi-major
6,848.8 km
B*
4.8424e-4
RAAN
237.7037°
Arg perigee
91.1674°
Mean anomaly
268.9510°
Rev number
7,301

§ Raw data

STARLINK-328801 62955U 25029H   26144.98181242  .00014700  00000+0  48424-3 0  99932 62955  53.1575 237.7037 0001596  91.1674 268.9510 15.31718774 73019

JSON: /api/v1/satellites/62955 · /tle

For live sub-satellite position, see the globe view (requires WebGL).

§ Visibility from observer

Set your observer location to see the next 7 days of passes ≥ 10°. The values pass through the URL so the page stays shareable.

No JS? Fill the form by hand. The geolocation button needs JavaScript.